Beaufort, NC

6:08 AM EDT on October 16, 2019 (GMT -0400)
Smith

Weather History for KMRH - June, 2019

Change the Weather History Date:

Tuesday, June 11, 2019

  Actual Average Record
Temperature  
Mean Temperature 77 °F -  
Max Temperature 82 °F 82 °F 91 °F (1956)
Min Temperature 73 °F 65 °F 51 °F (1988)
Cooling Degree Days 12    
Growing Degree Days 27 (Base 50)    
Moisture  
Dew Point 70 °F    
Average Humidity 78    
Maximum Humidity 90    
Minimum Humidity 53    
Precipitation  
Precipitation 0.11 in - - ()
Sea Level Pressure  
Sea Level Pressure 29.97 in    
Wind  
Wind Speed 12 mph (NNW)    
Max Wind Speed 20 mph    
Max Gust Speed 32 mph    
Visibility 10 miles    
Events Rain    
Averages and records for this station are not official NWS values.
T = Trace of Precipitation, MM = Missing Value Source: NWS Daily Summary

Daily Weather History Graph

Daily Weather History Graph

Search for Another Location

Airport or City:

Astronomy

Jun. 11, 2019 Rise Set
Actual Time 5:52 AM EDT 8:19 PM EDT
Civil Twilight 5:23 AM EDT 8:49 PM EDT
Nautical Twilight 4:47 AM EDT 9:25 PM EDT
Astronomical Twilight 4:07 AM EDT 10:05 PM EDT
Moon 2:32 PM EDT (6/11) 2:17 AM EDT (6/11)
Length of Visible Light 15h 25m
Length of Day
14h 26m
Waxing Gibbous, 66% of the Moon is Illuminated
Jun 11
Waxing Gibbous
Jun 17
Full
Jun 25
Last Quarter
Jul 2
New
Jul 9
First Quarter

Hourly Weather History & Observations

Time (EDT) Temp. Heat Index Dew Point Humidity Pressure Visibility Wind Dir Wind Speed Gust Speed Precip Events Conditions
12:58 AM 80.1 °F 85.1 °F 75.0 °F 85% 29.94 in 10.0 mi SW 15.0 mph - 0.00 in Rain Light Rain
1:31 AM 80.1 °F 85.1 °F 75.0 °F 85% 29.93 in 10.0 mi SW 17.3 mph - 0.00 in Rain Light Rain
1:58 AM 80.1 °F 85.1 °F 75.0 °F 85% 29.93 in 10.0 mi SW 15.0 mph - 0.00 in Rain Light Rain
2:58 AM 80.1 °F 85.1 °F 75.0 °F 85% 29.91 in 10.0 mi SW 13.8 mph - 0.00 in   Mostly Cloudy
3:31 AM 80.1 °F 85.1 °F 75.0 °F 85% 29.91 in 10.0 mi SW 12.7 mph - N/A   Scattered Clouds
3:43 AM 80.1 °F 85.4 °F 75.9 °F 87% 29.91 in 10.0 mi SW 11.5 mph - N/A   Mostly Cloudy
3:58 AM 80.1 °F 85.4 °F 75.9 °F 87% 29.91 in 10.0 mi SW 13.8 mph - N/A   Overcast
4:19 AM 77.0 °F - 73.9 °F 90% 29.91 in 2.5 mi SW 13.8 mph 32.2 mph 0.09 in Rain Heavy Rain
4:26 AM 75.9 °F - 72.0 °F 87% 29.91 in 4.0 mi SW 13.8 mph - 0.10 in Rain Light Rain
4:58 AM 77.0 °F - 73.0 °F 88% 29.91 in 10.0 mi SW 12.7 mph - 0.11 in   Partly Cloudy
5:58 AM 78.1 °F - 73.9 °F 87% 29.92 in 10.0 mi SW 8.1 mph - N/A   Clear
6:58 AM 79.0 °F - 73.9 °F 84% 29.93 in 10.0 mi West 8.1 mph - N/A   Mostly Cloudy
7:14 AM 79.0 °F - 73.0 °F 82% 29.94 in 10.0 mi WNW 11.5 mph - N/A   Scattered Clouds
7:38 AM 79.0 °F - 73.0 °F 82% 29.95 in 10.0 mi West 10.4 mph - N/A   Mostly Cloudy
7:54 AM 78.8 °F - 73.4 °F 83% 29.95 in 10.0 mi WNW 8.1 mph - N/A   Overcast
7:58 AM 79.0 °F - 73.0 °F 82% 29.95 in 10.0 mi WNW 9.2 mph - N/A   Overcast
8:26 AM 80.1 °F 84.2 °F 73.0 °F 79% 29.95 in 10.0 mi WNW 6.9 mph - N/A   Scattered Clouds
8:58 AM 81.0 °F 85.8 °F 73.0 °F 77% 29.96 in 10.0 mi NW 6.9 mph - N/A   Partly Cloudy
9:58 AM 79.0 °F - 72.0 °F 79% 29.97 in 10.0 mi NW 12.7 mph - 0.00 in Rain Light Rain
10:36 AM 80.1 °F 84.2 °F 73.0 °F 79% 29.97 in 10.0 mi North 9.2 mph - 0.00 in   Mostly Cloudy
10:58 AM 81.0 °F 85.8 °F 73.0 °F 77% 29.97 in 10.0 mi North 8.1 mph - 0.00 in   Mostly Cloudy
11:48 AM 79.0 °F - 71.1 °F 77% 29.99 in 10.0 mi North 19.6 mph 24.2 mph N/A   Overcast
11:58 AM 75.0 °F - 69.1 °F 82% 30.00 in 10.0 mi North 16.1 mph 27.6 mph N/A   Overcast
12:58 PM 75.9 °F - 68.0 °F 76% 30.00 in 10.0 mi NNE 16.1 mph - N/A   Overcast
1:30 PM 75.9 °F - 68.0 °F 76% 30.00 in 10.0 mi NE 11.5 mph - N/A   Overcast
1:58 PM 77.0 °F - 66.9 °F 71% 30.00 in 10.0 mi NNE 11.5 mph 21.9 mph N/A   Overcast
2:58 PM 75.0 °F - 66.9 °F 76% 30.00 in 10.0 mi North 12.7 mph - N/A   Overcast
3:58 PM 73.9 °F - 64.9 °F 73% 30.00 in 10.0 mi NNE 12.7 mph 20.7 mph N/A   Overcast
4:15 PM 73.9 °F - 66.0 °F 76% 30.00 in 9.0 mi NNE 8.1 mph - 0.00 in Rain Light Rain
4:58 PM 75.9 °F - 66.0 °F 71% 30.00 in 10.0 mi NNE 12.7 mph - 0.00 in   Overcast
5:27 PM 75.0 °F - 64.9 °F 71% 30.00 in 10.0 mi NE 8.1 mph - N/A   Overcast
5:58 PM 73.9 °F - 66.0 °F 76% 30.01 in 10.0 mi NNE 5.8 mph - N/A   Overcast
6:31 PM 75.0 °F - 66.9 °F 76% 30.01 in 10.0 mi NE 3.5 mph - N/A   Overcast
6:58 PM 75.0 °F - 66.9 °F 76% 30.02 in 10.0 mi NE 5.8 mph - N/A   Overcast
7:58 PM 73.9 °F - 64.9 °F 73% 30.03 in 10.0 mi NE 4.6 mph - N/A   Overcast
8:58 PM 73.9 °F - 64.0 °F 71% 30.04 in 10.0 mi ENE 8.1 mph - N/A   Clear
9:58 PM 73.9 °F - 62.1 °F 66% 30.06 in 10.0 mi East 9.2 mph - N/A   Mostly Cloudy
10:58 PM 73.9 °F - 61.0 °F 64% 30.07 in 10.0 mi NE 9.2 mph - N/A   Mostly Cloudy
11:58 PM 73.0 °F - 55.0 °F 53% 30.07 in 10.0 mi NE 8.1 mph - N/A   Mostly Cloudy